World > North America > United States > Pennsylvania > Buffalo Mills  

Buffalo Mills, PA Hourly Weather Updates

Feedback E-mail the Weather

Quick Clicks

Buffalo Mills, PA Weather Maps

°F °C°F °C
Buffalo Mills Weather Map
UTC Time: 6/13/2024, 09:46
Your Time:

Buffalo Mills, PA Regional Weather

Expires:202406131000;;934755
ASUS41 KCTP 130910
RWRCTP

REGIONAL WEATHER ROUNDUP
NATIONAL WEATHER SERVICE STATE COLLEGE PA
500 AM EDT THU JUN 13 2024

Note: "fair" indicates few or no clouds below 12,000 feet with no 
significant weather and/or obstructions to visibility.

* = STATION THAT DOES NOT REPORT PRECIPITATION /E.G. RAIN...SNOW...ETC/
    THUNDER OR FOG.


PAZ004>006-010>012-017>019-024>028-033>037-041-042-045-046-049>053-131000-
CENTRAL PENNSYLVANIA
  
CITY           SKY/WX    TMP DP  RH WIND       PRES   REMARKS
BRADFORD       CLEAR     61  53  75 S5        30.02S                  
ST MARYS       MOCLDY    52  46  82 CALM      30.06S                  
DUBOIS         CLEAR     58  50  75 S3        30.02S                  
CLEARFIELD     CLEAR     50  49  96 CALM      30.04S                  
JOHNSTOWN      CLEAR     58  48  69 CALM      30.06S                  
SOMERSET       CLEAR     50  46  87 S5        30.07S                  
ALTOONA        CLEAR     55  50  83 CALM      30.05R                  
STATE COLLEGE  CLEAR     55  54  94 CALM      30.03S                  
REEDSVILLE     CLEAR     52  50  93 CALM      30.03S                  
WELLSBORO      CLEAR     52  52 100 SW3       30.03R                  
WILLIAMSPORT   CLEAR     54  50  86 CALM      30.02R                  
SELINSGROVE    CLEAR     53  52  96 CALM      30.03R                  
FT INDIANTOWN  CLEAR     54  52  94 CALM      30.00R                  
CAPITAL CITY   CLEAR     61  53  75 CALM      30.01S                  
HARRISBURG     CLEAR     60  54  80 CALM      30.01R                  
YORK           CLEAR     55  53  93 CALM      30.02R                  
$$


SKY/WX - Weather  TMP - Temperature  DP - Dew Point  RH - Humidity
WIND - Wind Direction/Speed PRES - Barometric Pressure VSB - Visibility
WCI - Wind Chill Index E13G22 Wind - East Wind 13 mph/Gusts of 22 mph

Trending Headlines

Trending Entertainment Headlines

Buffalo Mills Radar Loop

Use the map search tool if you want to place a location marker on the radar map...

Buffalo Mills Quick Facts

National Two Day Weather Forecast


E-mail the Buffalo Mills Weather Forecast

Voice your opinion or tell us about page issues...